Location: 81360 Arifat, France
(43.7204°N, 2.3408°E)
Time: 08:16:26
(UTC+01:00)

Tiros 1 - All Passes

Search period start: 14 December 2025 00:00
Search period end: 24 December 2025 00:00
Orbit: 618 x 650 km, 48.4° (Epoch: 13 December)

Date Brightness Start Highest point End Pass type
(mag) Time Alt. Az. Time Alt. Az. Time Alt. Az.
14 Dec - 10:20:03 10° SW 10:24:35 48° SE 10:29:05 10° ENE daylight
14 Dec - 12:01:49 10° W 12:06:29 61° NNW 12:11:06 10° ENE daylight
14 Dec - 13:44:21 10° WNW 13:48:53 47° N 13:53:23 10° E daylight
14 Dec - 15:26:26 10° WNW 15:31:07 89° NNE 15:35:44 10° ESE daylight
14 Dec - 17:08:54 10° W 17:12:37 24° SW 17:16:18 10° SSE daylight
15 Dec - 09:01:19 10° S 09:04:52 21° SE 09:08:24 10° E daylight
15 Dec - 10:41:36 10° WSW 10:46:19 83° SSE 10:51:00 10° ENE daylight
15 Dec - 12:23:56 10° W 12:28:30 49° N 12:33:02 10° ENE daylight
15 Dec - 14:06:19 10° WNW 14:10:55 57° NNE 14:15:28 10° E daylight
15 Dec - 15:48:20 10° WNW 15:52:54 54° SSW 15:57:21 10° SE daylight
15 Dec - 17:32:22 10° WSW 17:34:00 12° SW 17:35:38 10° SSW daylight
16 Dec - 09:21:59 10° SSW 09:26:23 40° SE 09:30:47 10° ENE daylight
16 Dec - 11:03:30 10° WSW 11:08:11 67° NNW 11:12:52 10° ENE daylight
16 Dec - 12:46:01 10° WNW 12:50:35 47° N 12:55:04 10° ENE daylight
16 Dec - 14:28:10 10° WNW 14:32:52 79° NNE 14:37:30 10° ESE daylight
16 Dec - 16:10:28 10° W 16:14:29 29° SW 16:18:27 10° SSE daylight
17 Dec - 08:03:37 10° S 08:06:44 17° SE 08:09:50 10° E daylight
17 Dec - 09:43:22 10° SW 09:48:04 72° SSE 09:52:45 10° ENE daylight
17 Dec - 11:25:35 10° W 11:30:11 51° N 11:34:46 10° ENE daylight
17 Dec - 13:08:01 10° WNW 13:12:37 53° N 13:17:10 10° E daylight
17 Dec - 14:50:03 10° WNW 14:54:41 65° SSW 14:59:14 10° SE daylight
17 Dec - 16:33:19 10° W 16:35:55 15° SW 16:38:29 10° SSW daylight
18 Dec - 08:23:57 10° SSW 08:28:12 33° SE 08:32:25 10° ENE daylight
18 Dec - 10:05:11 10° WSW 10:09:54 74° NNW 10:14:37 10° ENE daylight
18 Dec - 11:47:41 10° WNW 11:52:15 47° N 11:56:45 10° ENE daylight
18 Dec - 13:29:54 10° WNW 13:34:36 71° NNE 13:39:13 10° ESE daylight
18 Dec - 15:12:04 10° WNW 15:16:19 35° SW 15:20:31 10° SSE daylight
19 Dec - 07:06:08 10° SSE 07:08:36 14° SE 07:11:04 10° E visible
19 Dec - 08:45:10 10° SW 08:49:50 61° SSE 08:54:29 10° ENE daylight
19 Dec - 10:27:13 10° W 10:31:52 54° NNW 10:36:29 10° ENE daylight
19 Dec - 12:09:42 10° WNW 12:14:18 50° N 12:18:50 10° E daylight
19 Dec - 13:51:44 10° WNW 13:56:26 76° SSW 14:01:03 10° ESE daylight
19 Dec - 15:34:35 10° W 15:37:47 18° SW 15:40:57 10° S daylight
20 Dec - 07:26:00 10° SSW 07:30:01 28° SE 07:34:02 10° E visible
20 Dec - 09:06:52 10° WSW 09:11:36 83° NNW 09:16:21 10° ENE daylight
20 Dec - 10:49:20 10° WNW 10:53:53 47° N 10:58:26 10° ENE daylight
20 Dec - 12:31:37 10° WNW 12:36:17 64° NNE 12:40:55 10° E daylight
20 Dec - 14:13:42 10° WNW 14:18:07 43° SW 14:22:29 10° SE daylight
21 Dec - 06:09:05 10° SSE 06:10:28 11° SE 06:11:51 10° ESE visible
21 Dec - 07:47:00 10° SW 07:51:35 51° SSE 07:56:10 10° ENE visible
21 Dec - 09:28:51 10° W 09:33:32 59° NNW 09:38:12 10° ENE daylight
21 Dec - 11:11:22 10° WNW 11:15:57 48° N 11:20:30 10° E daylight
21 Dec - 12:53:27 10° WNW 12:58:10 87° SSW 13:02:49 10° ESE daylight
21 Dec - 14:36:00 10° W 14:39:38 23° SW 14:43:14 10° S daylight
22 Dec - 06:28:07 10° S 06:31:50 23° SE 06:35:33 10° E visible
22 Dec - 08:08:35 10° WSW 08:13:19 87° SSE 08:18:04 10° ENE daylight
22 Dec - 09:50:57 10° W 09:55:33 48° N 10:00:07 10° ENE daylight
22 Dec - 11:33:18 10° WNW 11:37:58 59° NNE 11:42:35 10° E daylight
22 Dec - 13:15:21 10° WNW 13:19:54 51° SSW 13:24:24 10° SE daylight
22 Dec - 14:59:50 10° WSW 15:00:59 11° SW 15:02:07 10° SW daylight
23 Dec - 06:48:53 10° SW 06:53:21 43° SE 06:57:50 10° ENE visible
23 Dec - 08:30:30 10° W 08:35:12 64° NNW 08:39:54 10° ENE daylight
23 Dec - 10:13:01 10° WNW 10:17:36 47° N 10:22:09 10° ENE daylight
23 Dec - 11:55:09 10° WNW 11:59:53 83° NNE 12:04:34 10° ESE daylight
23 Dec - 13:37:30 10° W 13:41:28 27° SW 13:45:23 10° SSE daylight
